Bradford County (N27)
Towanda, PA
Field Elevation: 730
Lat: 41°44.40N  Long: 76°26.83W
CTAF/Unicom Freq: 123.0000
   
     For Weather-by-Phone, call (570) 265-1024
Weather Advisories
9/18/2014 11:37 Z
Altimeter 30.06" Hg
Wind 210° @ 3 KT
Gusts --
Visibility 1/2 SM
Ceiling --
Temperature 6° C (43° F)
Dewpoint 6° C (43° F)
Relative Humidity 100%
Density Altitude --
Condensation Altitude 700 feet
Wind Chill 5° C (41° F)
  Wind and Runways
Indicated Runway = 23
History
 
 
More Info
All DigiWx sites map
NOAA Forecast
 
Airport IQ 5010
(LHV) Lock Haven
(PS81) Robert Packer Hospital
 
about DigiWx
 
FAA Disclaimer: The data displayed is for advisory purposes only and is not to be used for flight planning or operations. For official data, please call (570) 265-1024 to hear the current automated AWOS voice message.
  METAR N27 181137Z AUTO 21003KT 1/2SM 06/06 A3006